,,,PA_Meas_PMT16A,,PR_Meas_QMR101_102,,RH_Meas_QMH101,,SR_Meas_QMS101,,TA_Meas_QMH101,,GenWind,,GenWind,
date,time,status,PA,status,PR,status,RH,status,SR,status,TA,status,DirAvg,status,SpdAvg,
2011-10-31, 00:00:05,VALID,1003.04,VALID,0.0,VALID,61.746,VALID,117.045,VALID,30.245,VALID,224.0,VALID,1.131,
2011-10-31, 00:01:05,VALID,1003.116,VALID,0.0,VALID,60.564,VALID,119.96,VALID,30.245,VALID,248.0,VALID,1.47,
2011-10-31, 00:02:05,VALID,1003.178,VALID,0.0,VALID,61.181,VALID,123.548,VALID,30.284,VALID,239.0,VALID,0.695,
2011-10-31, 00:03:05,VALID,1003.26,VALID,0.0,VALID,61.464,VALID,127.584,VALID,30.343,VALID,208.0,VALID,1.343,
2011-10-31, 00:04:05,VALID,1003.317,VALID,0.0,VALID,62.112,VALID,131.171,VALID,30.323,VALID,231.0,VALID,1.806,
2011-10-31, 00:05:05,VALID,1003.296,VALID,0.0,VALID,62.928,VALID,134.983,VALID,30.245,VALID,203.0,VALID,2.16,
2011-10-31, 00:06:05,VALID,1003.322,VALID,0.0,VALID,63.614,VALID,138.795,VALID,30.187,VALID,208.0,VALID,0.691,
2011-10-31, 00:07:05,VALID,1003.324,VALID,0.0,VALID,63.614,VALID,142.27,VALID,30.206,VALID,226.0,VALID,2.509,
2011-10-31, 00:08:05,VALID,1003.261,VALID,0.0,VALID,63.728,VALID,145.185,VALID,30.165,VALID,212.0,VALID,2.257,
2011-10-31, 00:09:05,VALID,1003.289,VALID,0.0,VALID,64.056,VALID,148.549,VALID,30.245,VALID,251.0,VALID,0.701,
2011-10-31, 00:10:05,VALID,1003.249,VALID,0.0,VALID,64.102,VALID,160.545,VALID,30.301,VALID,219.0,VALID,0.968,
2011-10-31, 00:11:05,VALID,1003.239,VALID,0.0,VALID,63.401,VALID,175.119,VALID,30.321,VALID,191.0,VALID,1.359,
2011-10-31, 00:12:05,VALID,1003.303,VALID,0.0,VALID,63.553,VALID,193.393,VALID,30.362,VALID,255.0,VALID,1.013,
2011-10-31, 00:13:05,VALID,1003.316,VALID,0.0,VALID,63.538,VALID,173.998,VALID,30.36,VALID,269.0,VALID,1.109,
2011-10-31, 00:14:05,VALID,1003.41,VALID,0.0,VALID,64.201,VALID,173.437,VALID,30.401,VALID,247.0,VALID,1.179,
2011-10-31, 00:15:05,VALID,1003.49,VALID,0.0,VALID,64.011,VALID,176.016,VALID,30.421,VALID,252.0,VALID,1.697,
2011-10-31, 00:16:05,VALID,1003.541,VALID,0.0,VALID,63.988,VALID,184.985,VALID,30.301,VALID,211.0,VALID,1.489,
2011-10-31, 00:17:05,VALID,1003.57,VALID,0.0,VALID,65.322,VALID,189.582,VALID,30.265,VALID,189.0,VALID,1.05,
2011-10-31, 00:18:05,VALID,1003.662,VALID,0.0,VALID,66.047,VALID,193.842,VALID,30.284,VALID,191.0,VALID,2.018,
2011-10-31, 00:19:05,VALID,1003.714,VALID,0.0,VALID,64.666,VALID,191.712,VALID,30.284,VALID,203.0,VALID,2.466,
2011-10-31, 00:20:05,VALID,1003.767,VALID,0.0,VALID,64.75,VALID,189.582,VALID,30.204,VALID,203.0,VALID,2.147,
2011-10-31, 00:21:05,VALID,1003.78,VALID,0.0,VALID,64.75,VALID,188.46,VALID,30.187,VALID,208.0,VALID,2.597,
2011-10-31, 00:22:05,VALID,1003.826,VALID,0.0,VALID,65.132,VALID,187.564,VALID,30.109,VALID,197.0,VALID,1.011,
2011-10-31, 00:23:05,VALID,1003.807,VALID,0.0,VALID,65.322,VALID,184.649,VALID,30.07,VALID,252.0,VALID,1.134,
2011-10-31, 00:24:05,VALID,1003.763,VALID,0.0,VALID,65.52,VALID,178.931,VALID,30.109,VALID,206.0,VALID,0.962,
2011-10-31, 00:25:05,VALID,1003.694,VALID,0.0,VALID,65.574,VALID,176.801,VALID,30.128,VALID,214.0,VALID,1.325,
2011-10-31, 00:26:05,VALID,1003.641,VALID,0.0,VALID,64.674,VALID,174.895,VALID,30.13,VALID,257.0,VALID,1.182,
2011-10-31, 00:27:05,VALID,1003.616,VALID,0.0,VALID,65.406,VALID,176.128,VALID,30.128,VALID,260.0,VALID,0.992,
2011-10-31, 00:28:05,VALID,1003.551,VALID,0.0,VALID,65.101,VALID,179.379,VALID,30.109,VALID,209.0,VALID,1.691,
2011-10-31, 00:29:05,VALID,1003.55,VALID,0.0,VALID,64.926,VALID,177.361,VALID,30.089,VALID,207.0,VALID,2.076,
2011-10-31, 00:30:05,VALID,1003.516,VALID,0.0,VALID,65.719,VALID,176.24,VALID,30.109,VALID,202.0,VALID,0.834,
2011-10-31, 00:31:05,VALID,1003.479,VALID,0.0,VALID,64.483,VALID,184.985,VALID,30.187,VALID,208.0,VALID,2.96,
2011-10-31, 00:32:05,VALID,1003.507,VALID,0.0,VALID,64.926,VALID,185.321,VALID,30.089,VALID,211.0,VALID,2.753,
2011-10-31, 00:33:05,VALID,1003.555,VALID,0.0,VALID,64.926,VALID,173.662,VALID,30.089,VALID,209.0,VALID,2.659,
2011-10-31, 00:34:05,VALID,1003.582,VALID,0.0,VALID,65.513,VALID,163.796,VALID,30.05,VALID,207.0,VALID,2.246,
2011-10-31, 00:35:05,VALID,1003.579,VALID,0.0,VALID,65.826,VALID,163.796,VALID,30.089,VALID,211.0,VALID,0.359,
2011-10-31, 00:36:05,VALID,1003.613,VALID,0.0,VALID,65.787,VALID,164.805,VALID,30.089,VALID,229.0,VALID,2.109,
2011-10-31, 00:37:05,VALID,1003.631,VALID,0.0,VALID,66.23,VALID,161.217,VALID,30.148,VALID,213.0,VALID,0.422,
2011-10-31, 00:38:05,VALID,1003.614,VALID,0.0,VALID,65.604,VALID,159.76,VALID,30.206,VALID,224.0,VALID,0.577,
2011-10-31, 00:39:05,VALID,1003.651,VALID,0.0,VALID,65.52,VALID,163.011,VALID,30.265,VALID,235.0,VALID,0.853,
2011-10-31, 00:40:05,VALID,1003.706,VALID,0.0,VALID,65.505,VALID,174.446,VALID,30.226,VALID,200.0,VALID,2.573,
2011-10-31, 00:41:05,VALID,1003.714,VALID,0.0,VALID,66.047,VALID,172.765,VALID,30.067,VALID,201.0,VALID,2.681,
2011-10-31, 00:42:05,VALID,1003.732,VALID,0.0,VALID,66.588,VALID,176.24,VALID,30.011,VALID,209.0,VALID,2.412,
2011-10-31, 00:43:05,VALID,1003.761,VALID,0.0,VALID,67.007,VALID,163.347,VALID,29.853,VALID,186.0,VALID,3.276,
2011-10-31, 00:44:05,VALID,1003.77,VALID,0.0,VALID,67.435,VALID,151.8,VALID,29.796,VALID,184.0,VALID,1.939,
2011-10-31, 00:45:05,VALID,1003.75,VALID,0.0,VALID,67.206,VALID,149.558,VALID,29.738,VALID,187.0,VALID,2.426,
2011-10-31, 00:46:05,VALID,1003.679,VALID,0.0,VALID,67.892,VALID,150.006,VALID,29.638,VALID,201.0,VALID,3.675,
2011-10-31, 00:47:05,VALID,1003.707,VALID,0.0,VALID,68.037,VALID,151.912,VALID,29.64,VALID,236.0,VALID,1.135,
2011-10-31, 00:48:05,VALID,1003.725,VALID,0.0,VALID,67.534,VALID,153.93,VALID,29.66,VALID,199.0,VALID,2.53,
2011-10-31, 00:49:05,VALID,1003.76,VALID,0.0,VALID,66.527,VALID,154.266,VALID,29.66,VALID,213.0,VALID,3.316,
2011-10-31, 00:50:05,VALID,1003.803,VALID,0.0,VALID,67.412,VALID,153.594,VALID,29.621,VALID,285.0,VALID,0.993,
2011-10-31, 00:51:05,VALID,1003.848,VALID,0.0,VALID,66.802,VALID,149.894,VALID,29.64,VALID,185.0,VALID,0.663,
2011-10-31, 00:52:05,VALID,1003.948,VALID,0.0,VALID,66.832,VALID,140.364,VALID,29.679,VALID,194.0,VALID,1.009,
2011-10-31, 00:53:05,VALID,1003.982,VALID,0.0,VALID,66.84,VALID,136.44,VALID,29.72,VALID,232.0,VALID,1.038,
2011-10-31, 00:54:05,VALID,1004.025,VALID,0.0,VALID,67.999,VALID,136.216,VALID,29.718,VALID,190.0,VALID,2.241,
2011-10-31, 00:55:05,VALID,1003.999,VALID,0.0,VALID,66.55,VALID,137.449,VALID,29.64,VALID,182.0,VALID,3.862,
2011-10-31, 00:56:05,VALID,1004.007,VALID,0.0,VALID,66.802,VALID,135.431,VALID,29.582,VALID,196.0,VALID,2.478,
2011-10-31, 00:57:05,VALID,1003.97,VALID,0.0,VALID,66.306,VALID,132.068,VALID,29.523,VALID,182.0,VALID,3.384,
2011-10-31, 00:58:05,VALID,1003.962,VALID,0.0,VALID,66.573,VALID,125.902,VALID,29.503,VALID,210.0,VALID,3.311,
2011-10-31, 00:59:05,VALID,1003.944,VALID,0.0,VALID,66.794,VALID,118.727,VALID,29.464,VALID,208.0,VALID,3.477,
2011-10-31, 01:00:05,VALID,1004.019,VALID,0.0,VALID,66.87,VALID,109.646,VALID,29.445,VALID,204.0,VALID,3.152,
2011-10-31, 01:01:05,VALID,1004.129,VALID,0.0,VALID,67.335,VALID,99.443,VALID,29.445,VALID,221.0,VALID,1.146,
2011-10-31, 01:02:05,VALID,1004.224,VALID,0.0,VALID,67.839,VALID,88.569,VALID,29.464,VALID,219.0,VALID,1.343,
2011-10-31, 01:03:05,VALID,1004.346,VALID,0.0,VALID,67.625,VALID,72.312,VALID,29.503,VALID,199.0,VALID,2.224,
2011-10-31, 01:04:05,VALID,1004.407,VALID,0.0,VALID,67.198,VALID,61.325,VALID,29.445,VALID,178.0,VALID,3.694,
2011-10-31, 01:05:05,VALID,1004.457,VALID,0.0,VALID,67.107,VALID,55.944,VALID,29.386,VALID,212.0,VALID,2.546,
2011-10-31, 01:06:05,VALID,1004.399,VALID,0.0,VALID,67.511,VALID,57.401,VALID,29.347,VALID,188.0,VALID,2.632,
2011-10-31, 01:07:05,VALID,1004.403,VALID,0.0,VALID,67.915,VALID,63.119,VALID,29.347,VALID,208.0,VALID,1.607,
2011-10-31, 01:08:05,VALID,1004.339,VALID,0.0,VALID,67.625,VALID,67.94,VALID,29.347,VALID,204.0,VALID,3.08,
2011-10-31, 01:09:05,VALID,1004.251,VALID,0.0,VALID,67.602,VALID,70.07,VALID,29.347,VALID,198.0,VALID,1.736,
2011-10-31, 01:10:05,VALID,1004.249,VALID,0.0,VALID,67.48,VALID,68.276,VALID,29.347,VALID,219.0,VALID,2.609,
2011-10-31, 01:11:05,VALID,1004.221,VALID,0.0,VALID,67.396,VALID,61.213,VALID,29.328,VALID,218.0,VALID,3.636,
2011-10-31, 01:12:05,VALID,1004.263,VALID,0.0,VALID,67.48,VALID,50.114,VALID,29.308,VALID,232.0,VALID,1.955,
2011-10-31, 01:13:05,VALID,1004.311,VALID,0.0,VALID,67.709,VALID,37.445,VALID,29.289,VALID,206.0,VALID,2.291,
2011-10-31, 01:14:05,VALID,1004.382,VALID,0.0,VALID,67.793,VALID,25.562,VALID,29.269,VALID,214.0,VALID,2.546,
2011-10-31, 01:15:05,VALID,1004.437,VALID,0.0,VALID,67.938,VALID,17.265,VALID,29.248,VALID,203.0,VALID,2.539,
2011-10-31, 01:16:05,VALID,1004.48,VALID,0.0,VALID,68.128,VALID,11.66,VALID,29.248,VALID,205.0,VALID,2.211,
2011-10-31, 01:17:05,VALID,1004.467,VALID,0.0,VALID,67.74,VALID,7.399,VALID,29.23,VALID,223.0,VALID,2.209,
2011-10-31, 01:18:05,VALID,1004.497,VALID,0.0,VALID,67.785,VALID,4.933,VALID,29.23,VALID,237.0,VALID,1.613,
2011-10-31, 01:19:05,VALID,1004.525,VALID,0.0,VALID,67.762,VALID,3.924,VALID,29.211,VALID,217.0,VALID,2.983,
2011-10-31, 01:20:05,VALID,1004.559,VALID,0.0,VALID,68.083,VALID,3.139,VALID,29.191,VALID,219.0,VALID,2.277,
2011-10-31, 01:21:05,VALID,1004.562,VALID,0.0,VALID,68.151,VALID,2.466,VALID,29.191,VALID,203.0,VALID,2.452,
2011-10-31, 01:22:05,VALID,1004.618,VALID,0.0,VALID,68.312,VALID,1.794,VALID,29.152,VALID,201.0,VALID,3.309,
2011-10-31, 01:23:05,VALID,1004.632,VALID,0.0,VALID,68.51,VALID,1.345,VALID,29.152,VALID,197.0,VALID,2.521,
2011-10-31, 01:24:05,VALID,1004.707,VALID,0.0,VALID,68.571,VALID,0.897,VALID,29.113,VALID,208.0,VALID,3.434,
2011-10-31, 01:25:05,VALID,1004.801,VALID,0.0,VALID,69.265,VALID,0.448,VALID,29.074,VALID,180.0,VALID,2.541,
2011-10-31, 01:26:05,VALID,1004.838,VALID,0.0,VALID,69.707,VALID,0.336,VALID,28.938,VALID,196.0,VALID,3.259,
2011-10-31, 01:27:05,VALID,1004.956,VALID,0.0,VALID,71.003,VALID,0.224,VALID,28.82,VALID,194.0,VALID,3.117,
2011-10-31, 01:28:05,VALID,1005.067,VALID,0.0,VALID,73.406,VALID,0.224,VALID,28.664,VALID,164.0,VALID,1.94,
2011-10-31, 01:29:05,VALID,1005.112,VALID,0.0,VALID,74.077,VALID,0.112,VALID,28.411,VALID,154.0,VALID,2.963,
2011-10-31, 01:30:05,VALID,1005.137,VALID,0.0,VALID,75.686,VALID,0.112,VALID,28.174,VALID,147.0,VALID,2.056,
2011-10-31, 01:31:05,VALID,1005.159,VALID,0.0,VALID,77.836,VALID,0.112,VALID,27.903,VALID,142.0,VALID,1.54,
2011-10-31, 01:32:05,VALID,1005.165,VALID,0.5,VALID,79.102,VALID,0.112,VALID,27.572,VALID,173.0,VALID,2.832,
2011-10-31, 01:33:05,VALID,1005.129,VALID,0.5,VALID,81.062,VALID,0.112,VALID,27.26,VALID,140.0,VALID,1.766,
2011-10-31, 01:34:05,VALID,1005.071,VALID,0.0,VALID,86.461,VALID,0.0,VALID,26.967,VALID,168.0,VALID,1.57,
2011-10-31, 01:35:05,VALID,1004.998,VALID,1.0,VALID,91.418,VALID,0.0,VALID,26.675,VALID,194.0,VALID,1.357,
2011-10-31, 01:36:05,VALID,1004.966,VALID,0.0,VALID,95.162,VALID,0.0,VALID,26.46,VALID,180.0,VALID,1.543,
2011-10-31, 01:37:04,VALID,1004.97,VALID,0.5,VALID,97.411,VALID,0.112,VALID,26.322,VALID,186.0,VALID,2.56,
2011-10-31, 01:38:04,VALID,1004.99,VALID,0.0,VALID,99.409,VALID,0.0,VALID,26.265,VALID,189.0,VALID,2.111,
2011-10-31, 01:39:04,VALID,1005.041,VALID,0.0,VALID,100.607,VALID,0.0,VALID,26.168,VALID,163.0,VALID,2.618,
2011-10-31, 01:40:04,VALID,1005.041,VALID,0.5,VALID,101.293,VALID,0.0,VALID,26.068,VALID,170.0,VALID,2.435,
2011-10-31, 01:41:04,VALID,1005.075,VALID,0.0,VALID,101.705,VALID,0.112,VALID,26.01,VALID,181.0,VALID,1.939,
2011-10-31, 01:42:04,VALID,1005.104,VALID,0.0,VALID,102.177,VALID,0.0,VALID,25.971,VALID,178.0,VALID,1.336,
2011-10-31, 01:43:04,VALID,1005.095,VALID,0.0,VALID,102.452,VALID,0.0,VALID,25.951,VALID,157.0,VALID,2.088,
2011-10-31, 01:44:04,VALID,1005.133,VALID,0.0,VALID,102.757,VALID,0.0,VALID,25.932,VALID,145.0,VALID,1.566,
2011-10-31, 01:45:04,VALID,1005.145,VALID,0.0,VALID,102.856,VALID,0.0,VALID,25.934,VALID,152.0,VALID,1.763,
2011-10-31, 01:46:04,VALID,1005.152,VALID,0.0,VALID,103.016,VALID,0.0,VALID,25.912,VALID,180.0,VALID,1.491,
2011-10-31, 01:47:04,VALID,1005.141,VALID,0.0,VALID,103.115,VALID,0.0,VALID,25.932,VALID,183.0,VALID,1.945,
2011-10-31, 01:48:04,VALID,1005.105,VALID,0.0,VALID,103.215,VALID,0.0,VALID,25.973,VALID,178.0,VALID,1.277,
2011-10-31, 01:49:04,VALID,1005.121,VALID,0.0,VALID,103.276,VALID,0.0,VALID,25.992,VALID,164.0,VALID,1.008,
2011-10-31, 01:50:04,VALID,1005.102,VALID,0.0,VALID,103.352,VALID,0.112,VALID,25.992,VALID,208.0,VALID,1.095,
2011-10-31, 01:51:04,VALID,1005.117,VALID,0.0,VALID,103.344,VALID,0.0,VALID,26.012,VALID,201.0,VALID,0.864,
2011-10-31, 01:52:04,VALID,1005.141,VALID,0.0,VALID,103.359,VALID,0.0,VALID,26.031,VALID,165.0,VALID,0.562,
2011-10-31, 01:53:04,VALID,1005.217,VALID,0.0,VALID,103.398,VALID,0.0,VALID,26.051,VALID,150.0,VALID,0.543,
2011-10-31, 01:54:04,VALID,1005.237,VALID,0.0,VALID,103.42,VALID,0.112,VALID,26.051,VALID,151.0,VALID,0.319,
2011-10-31, 01:55:04,VALID,1005.28,VALID,0.0,VALID,103.382,VALID,0.0,VALID,26.01,VALID,49.0,VALID,0.633,
2011-10-31, 01:56:04,VALID,1005.309,VALID,0.0,VALID,103.413,VALID,0.0,VALID,26.031,VALID,39.0,VALID,0.439,
2011-10-31, 01:57:04,VALID,1005.336,VALID,0.0,VALID,103.413,VALID,0.112,VALID,26.01,VALID,38.0,VALID,0.534,
2011-10-31, 01:58:04,VALID,1005.397,VALID,0.5,VALID,103.344,VALID,0.112,VALID,26.012,VALID,5.0,VALID,0.861,
2011-10-31, 01:59:04,VALID,1005.446,VALID,0.0,VALID,103.306,VALID,0.112,VALID,25.973,VALID,4.0,VALID,0.426,
2011-10-31, 02:00:04,VALID,1005.498,VALID,0.0,VALID,103.352,VALID,0.0,VALID,25.951,VALID,4.0,VALID,0.581,
2011-10-31, 02:01:04,VALID,1005.548,VALID,0.0,VALID,103.398,VALID,0.0,VALID,25.953,VALID,4.0,VALID,0.529,
2011-10-31, 02:02:04,VALID,1005.598,VALID,0.0,VALID,103.512,VALID,0.0,VALID,25.973,VALID,4.0,VALID,0.606,
2011-10-31, 02:03:04,VALID,1005.657,VALID,0.0,VALID,103.573,VALID,0.112,VALID,25.953,VALID,4.0,VALID,0.349,
2011-10-31, 02:04:04,VALID,1005.723,VALID,0.0,VALID,103.619,VALID,0.0,VALID,25.953,VALID,4.0,VALID,0.379,
2011-10-31, 02:05:04,VALID,1005.752,VALID,0.0,VALID,103.634,VALID,0.112,VALID,25.914,VALID,4.0,VALID,0.248,
2011-10-31, 02:06:04,VALID,1005.794,VALID,0.0,VALID,103.672,VALID,0.0,VALID,25.912,VALID,4.0,VALID,0.271,
2011-10-31, 02:07:04,VALID,1005.828,VALID,0.0,VALID,103.726,VALID,0.112,VALID,25.914,VALID,4.0,VALID,0.004,
2011-10-31, 02:08:04,VALID,1005.828,VALID,0.0,VALID,103.794,VALID,0.112,VALID,25.934,VALID,4.0,VALID,0.109,
2011-10-31, 02:09:04,VALID,1005.865,VALID,0.0,VALID,103.817,VALID,0.112,VALID,25.914,VALID,4.0,VALID,0.0,
2011-10-31, 02:10:04,VALID,1005.841,VALID,0.0,VALID,103.84,VALID,0.0,VALID,25.914,VALID,4.0,VALID,0.0,
2011-10-31, 02:11:04,VALID,1005.825,VALID,0.0,VALID,103.863,VALID,0.0,VALID,25.873,VALID,4.0,VALID,0.0,
2011-10-31, 02:12:04,VALID,1005.828,VALID,0.0,VALID,103.878,VALID,0.112,VALID,25.893,VALID,4.0,VALID,0.0,
2011-10-31, 02:13:04,VALID,1005.808,VALID,0.0,VALID,103.916,VALID,0.112,VALID,25.873,VALID,4.0,VALID,0.0,
2011-10-31, 02:14:04,VALID,1005.838,VALID,0.0,VALID,103.916,VALID,0.112,VALID,25.875,VALID,4.0,VALID,0.0,
2011-10-31, 02:15:04,VALID,1005.857,VALID,0.0,VALID,103.939,VALID,0.0,VALID,25.877,VALID,4.0,VALID,0.293,
2011-10-31, 02:16:04,VALID,1005.829,VALID,0.0,VALID,103.931,VALID,0.0,VALID,25.877,VALID,4.0,VALID,0.235,
2011-10-31, 02:17:04,VALID,1005.858,VALID,0.0,VALID,103.954,VALID,0.0,VALID,25.858,VALID,4.0,VALID,0.393,
2011-10-31, 02:18:04,VALID,1005.864,VALID,0.0,VALID,103.977,VALID,0.0,VALID,25.897,VALID,4.0,VALID,0.75,
2011-10-31, 02:19:04,VALID,1005.87,VALID,0.0,VALID,103.985,VALID,0.0,VALID,25.897,VALID,14.0,VALID,0.589,
2011-10-31, 02:20:04,VALID,1005.873,VALID,0.0,VALID,103.977,VALID,0.0,VALID,25.875,VALID,47.0,VALID,0.726,
2011-10-31, 02:21:04,VALID,1005.842,VALID,0.0,VALID,103.977,VALID,0.112,VALID,25.873,VALID,48.0,VALID,0.527,
2011-10-31, 02:22:04,VALID,1005.829,VALID,0.0,VALID,103.954,VALID,0.112,VALID,25.914,VALID,47.0,VALID,0.441,
2011-10-31, 02:23:04,VALID,1005.784,VALID,0.0,VALID,103.954,VALID,0.0,VALID,25.873,VALID,55.0,VALID,0.533,
2011-10-31, 02:24:04,VALID,1005.775,VALID,0.0,VALID,103.947,VALID,0.0,VALID,25.875,VALID,63.0,VALID,0.675,
2011-10-31, 02:25:04,VALID,1005.792,VALID,0.0,VALID,103.931,VALID,0.0,VALID,25.895,VALID,91.0,VALID,0.436,
2011-10-31, 02:26:04,VALID,1005.807,VALID,0.0,VALID,103.947,VALID,0.0,VALID,25.912,VALID,147.0,VALID,0.939,
2011-10-31, 02:27:04,VALID,1005.789,VALID,0.0,VALID,103.947,VALID,0.112,VALID,25.934,VALID,154.0,VALID,1.146,
2011-10-31, 02:28:04,VALID,1005.805,VALID,0.0,VALID,103.962,VALID,0.112,VALID,25.934,VALID,132.0,VALID,1.031,
2011-10-31, 02:29:04,VALID,1005.802,VALID,0.0,VALID,103.97,VALID,0.112,VALID,25.912,VALID,129.0,VALID,0.916,
2011-10-31, 02:30:04,VALID,1005.839,VALID,0.0,VALID,103.97,VALID,0.112,VALID,25.914,VALID,129.0,VALID,1.002,
2011-10-31, 02:31:04,VALID,1005.846,VALID,0.0,VALID,103.962,VALID,0.0,VALID,25.873,VALID,126.0,VALID,0.748,
2011-10-31, 02:32:04,VALID,1005.861,VALID,0.0,VALID,103.939,VALID,0.112,VALID,25.875,VALID,119.0,VALID,0.513,
2011-10-31, 02:33:04,VALID,1005.905,VALID,0.0,VALID,103.931,VALID,0.112,VALID,25.854,VALID,97.0,VALID,0.586,
2011-10-31, 02:34:04,VALID,1005.94,VALID,0.0,VALID,103.947,VALID,0.0,VALID,25.856,VALID,97.0,VALID,0.399,
2011-10-31, 02:35:04,VALID,1005.988,VALID,0.0,VALID,103.924,VALID,0.112,VALID,25.856,VALID,97.0,VALID,0.096,
2011-10-31, 02:36:04,VALID,1006.012,VALID,0.0,VALID,103.916,VALID,0.0,VALID,25.877,VALID,97.0,VALID,0.22,
2011-10-31, 02:37:04,VALID,1006.085,VALID,0.0,VALID,103.931,VALID,0.0,VALID,25.897,VALID,97.0,VALID,0.376,
2011-10-31, 02:38:04,VALID,1006.119,VALID,0.0,VALID,103.947,VALID,0.0,VALID,25.897,VALID,97.0,VALID,0.128,
2011-10-31, 02:39:04,VALID,1006.149,VALID,0.0,VALID,103.947,VALID,0.0,VALID,25.895,VALID,97.0,VALID,0.0,
2011-10-31, 02:40:04,VALID,1006.183,VALID,0.0,VALID,103.947,VALID,0.0,VALID,25.916,VALID,96.0,VALID,0.002,
2011-10-31, 02:41:04,VALID,1006.209,VALID,0.0,VALID,103.97,VALID,0.0,VALID,25.916,VALID,97.0,VALID,0.359,
2011-10-31, 02:42:04,VALID,1006.274,VALID,0.0,VALID,103.909,VALID,0.0,VALID,25.916,VALID,96.0,VALID,0.419,
2011-10-31, 02:43:04,VALID,1006.302,VALID,0.0,VALID,103.916,VALID,0.0,VALID,25.916,VALID,96.0,VALID,0.618,
2011-10-31, 02:44:04,VALID,1006.318,VALID,0.0,VALID,103.878,VALID,0.0,VALID,25.897,VALID,95.0,VALID,0.516,
2011-10-31, 02:45:04,VALID,1006.319,VALID,0.0,VALID,103.848,VALID,0.0,VALID,25.916,VALID,57.0,VALID,0.466,
2011-10-31, 02:46:04,VALID,1006.332,VALID,0.0,VALID,103.84,VALID,0.0,VALID,25.897,VALID,57.0,VALID,0.197,
2011-10-31, 02:47:04,VALID,1006.331,VALID,0.0,VALID,103.825,VALID,0.0,VALID,25.897,VALID,57.0,VALID,0.389,
2011-10-31, 02:48:04,VALID,1006.356,VALID,0.0,VALID,103.809,VALID,0.0,VALID,25.877,VALID,57.0,VALID,0.357,
2011-10-31, 02:49:04,VALID,1006.352,VALID,0.0,VALID,103.84,VALID,0.0,VALID,25.877,VALID,57.0,VALID,0.477,
2011-10-31, 02:50:04,VALID,1006.356,VALID,0.0,VALID,103.825,VALID,0.0,VALID,25.877,VALID,57.0,VALID,0.618,
2011-10-31, 02:51:04,VALID,1006.366,VALID,0.0,VALID,103.87,VALID,0.0,VALID,25.897,VALID,57.0,VALID,0.332,
2011-10-31, 02:52:04,VALID,1006.387,VALID,0.0,VALID,103.878,VALID,0.0,VALID,25.877,VALID,57.0,VALID,0.346,
2011-10-31, 02:53:04,VALID,1006.382,VALID,0.0,VALID,103.909,VALID,0.0,VALID,25.877,VALID,57.0,VALID,0.41,
2011-10-31, 02:54:04,VALID,1006.399,VALID,0.0,VALID,103.916,VALID,0.0,VALID,25.858,VALID,57.0,VALID,0.853,
2011-10-31, 02:55:04,VALID,1006.433,VALID,0.0,VALID,103.916,VALID,0.0,VALID,25.838,VALID,79.0,VALID,0.648,
2011-10-31, 02:56:04,VALID,1006.39,VALID,0.0,VALID,103.947,VALID,0.112,VALID,25.797,VALID,68.0,VALID,0.757,
2011-10-31, 02:57:04,VALID,1006.402,VALID,0.0,VALID,103.939,VALID,0.0,VALID,25.836,VALID,144.0,VALID,0.968,
2011-10-31, 02:58:04,VALID,1006.382,VALID,0.0,VALID,103.985,VALID,0.0,VALID,25.877,VALID,161.0,VALID,1.214,
2011-10-31, 02:59:04,VALID,1006.342,VALID,0.0,VALID,104.0,VALID,0.0,VALID,25.836,VALID,142.0,VALID,0.811,
2011-10-31, 03:00:04,VALID,1006.333,VALID,0.0,VALID,104.0,VALID,0.0,VALID,25.797,VALID,136.0,VALID,1.296,
2011-10-31, 03:01:04,VALID,1006.276,VALID,0.0,VALID,104.0,VALID,0.112,VALID,25.797,VALID,153.0,VALID,1.382,
2011-10-31, 03:02:04,VALID,1006.226,VALID,0.0,VALID,104.0,VALID,0.112,VALID,25.797,VALID,161.0,VALID,1.023,
2011-10-31, 03:03:04,VALID,1006.212,VALID,0.0,VALID,103.985,VALID,0.112,VALID,25.778,VALID,139.0,VALID,0.686,
2011-10-31, 03:04:04,VALID,1006.179,VALID,0.0,VALID,103.931,VALID,0.0,VALID,25.717,VALID,145.0,VALID,1.709,
2011-10-31, 03:05:04,VALID,1006.141,VALID,0.0,VALID,103.741,VALID,0.0,VALID,25.719,VALID,158.0,VALID,1.563,
2011-10-31, 03:06:04,VALID,1006.134,VALID,0.0,VALID,103.581,VALID,0.0,VALID,25.741,VALID,166.0,VALID,1.477,
2011-10-31, 03:07:04,VALID,1006.104,VALID,0.0,VALID,103.337,VALID,0.0,VALID,25.721,VALID,165.0,VALID,1.293,
2011-10-31, 03:08:04,VALID,1006.087,VALID,0.0,VALID,102.94,VALID,0.0,VALID,25.663,VALID,158.0,VALID,1.406,
2011-10-31, 03:09:04,VALID,1006.081,VALID,0.0,VALID,102.643,VALID,0.0,VALID,25.643,VALID,142.0,VALID,1.118,
2011-10-31, 03:10:04,VALID,1006.054,VALID,0.0,VALID,102.574,VALID,0.0,VALID,25.624,VALID,158.0,VALID,2.141,
2011-10-31, 03:11:04,VALID,1006.084,VALID,0.0,VALID,102.147,VALID,0.0,VALID,25.565,VALID,169.0,VALID,1.332,
2011-10-31, 03:12:04,VALID,1006.071,VALID,0.0,VALID,102.269,VALID,0.0,VALID,25.565,VALID,184.0,VALID,1.257,
2011-10-31, 03:13:04,VALID,1006.107,VALID,0.0,VALID,102.277,VALID,0.0,VALID,25.524,VALID,156.0,VALID,0.896,
2011-10-31, 03:14:04,VALID,1006.167,VALID,0.0,VALID,102.223,VALID,0.0,VALID,25.507,VALID,181.0,VALID,0.992,
2011-10-31, 03:15:04,VALID,1006.177,VALID,0.0,VALID,102.208,VALID,0.0,VALID,25.466,VALID,172.0,VALID,0.716,
2011-10-31, 03:16:04,VALID,1006.214,VALID,0.0,VALID,102.292,VALID,0.0,VALID,25.468,VALID,160.0,VALID,0.69,
2011-10-31, 03:17:04,VALID,1006.29,VALID,0.0,VALID,102.193,VALID,0.0,VALID,25.429,VALID,155.0,VALID,0.952,
2011-10-31, 03:18:04,VALID,1006.299,VALID,0.0,VALID,102.132,VALID,0.0,VALID,25.388,VALID,184.0,VALID,0.829,
2011-10-31, 03:19:04,VALID,1006.356,VALID,0.0,VALID,102.109,VALID,0.0,VALID,25.39,VALID,188.0,VALID,1.373,
2011-10-31, 03:20:04,VALID,1006.379,VALID,0.0,VALID,101.415,VALID,0.0,VALID,25.331,VALID,188.0,VALID,1.682,
2011-10-31, 03:21:04,VALID,1006.392,VALID,0.0,VALID,100.096,VALID,0.0,VALID,25.273,VALID,213.0,VALID,2.149,
2011-10-31, 03:22:04,VALID,1006.427,VALID,0.0,VALID,99.386,VALID,0.0,VALID,25.271,VALID,211.0,VALID,1.843,
2011-10-31, 03:23:04,VALID,1006.46,VALID,0.0,VALID,99.036,VALID,0.0,VALID,25.253,VALID,197.0,VALID,1.95,
2011-10-31, 03:24:04,VALID,1006.5,VALID,0.0,VALID,91.357,VALID,0.0,VALID,25.214,VALID,200.0,VALID,1.863,
2011-10-31, 03:25:04,VALID,1006.56,VALID,0.0,VALID,91.334,VALID,0.0,VALID,25.214,VALID,185.0,VALID,1.229,
2011-10-31, 03:26:04,VALID,1006.586,VALID,0.0,VALID,91.623,VALID,0.0,VALID,25.175,VALID,194.0,VALID,1.311,
2011-10-31, 03:27:04,VALID,1006.621,VALID,0.0,VALID,91.723,VALID,0.112,VALID,25.156,VALID,197.0,VALID,1.468,
2011-10-31, 03:28:04,VALID,1006.67,VALID,0.0,VALID,92.966,VALID,0.0,VALID,25.136,VALID,185.0,VALID,1.108,
2011-10-31, 03:29:04,VALID,1006.707,VALID,0.0,VALID,94.956,VALID,0.0,VALID,25.117,VALID,199.0,VALID,0.855,
2011-10-31, 03:30:04,VALID,1006.755,VALID,0.0,VALID,97.511,VALID,0.0,VALID,25.078,VALID,189.0,VALID,0.8,
2011-10-31, 03:31:04,VALID,1006.811,VALID,0.0,VALID,98.837,VALID,0.0,VALID,25.078,VALID,166.0,VALID,0.453,
2011-10-31, 03:32:04,VALID,1006.88,VALID,0.0,VALID,99.432,VALID,0.0,VALID,25.058,VALID,214.0,VALID,0.859,
2011-10-31, 03:33:04,VALID,1006.949,VALID,0.0,VALID,99.691,VALID,0.0,VALID,25.058,VALID,248.0,VALID,0.546,
2011-10-31, 03:34:04,VALID,1007.011,VALID,0.0,VALID,100.34,VALID,0.0,VALID,25.076,VALID,249.0,VALID,0.04,
2011-10-31, 03:35:04,VALID,1007.049,VALID,0.0,VALID,100.279,VALID,0.0,VALID,25.037,VALID,218.0,VALID,0.493,
2011-10-31, 03:36:04,VALID,1007.068,VALID,0.0,VALID,99.211,VALID,0.0,VALID,25.039,VALID,195.0,VALID,0.811,